User: anonymous   Login
Location: Unspecified
(0.0000°N, 0.0000°E)
Time: 02:35:11
(UTC+00:00)
Language:

COSMOS 2507 - Orbit

View from above orbital plane
View from above orbital plane
View from above satellite
View from above satellite

Ground track
Ground track

The orbit data is extracted from the following two-line orbital elements,

1 40920U 15050A   19111.74148014  .00000027  00000-0  12634-3 0  9996
2 40920  82.4885 266.6119 0008209 284.8296  75.1874 12.42893848162225
Epoch (UTC): 21 April 2019 17:47:43
Eccentricity: 0.0008209
inclination: 82.4885°
perigee height: 1488 km
apogee height: 1501 km
right ascension of ascending node: 266.6119°
argument of perigee: 284.8296°
revolutions per day: 12.42893848
mean anomaly at epoch: 75.1874°
orbit number at epoch: 16222

The dashed part of the orbit path shows where the satellite is in the earth's shadow,  

DLR